Home > Weather > Rockford > Past weeks

Flag for USA Past Weather in Rockford, Illinois, USA — Yesterday and Last 2 Weeks

Now
74 °F

Scattered clouds.


Feels Like: 77 °F
Forecast: 55 / 76 °F
Wind: 10 mph from Northwest

Location: Greater Rockford Airport

Current Time: Jul 1, 2016 at 7:24:00 PM

Latest Report: Jul 1, 2016 at 6:54 PM


Visibility: 10 mi

Pressure: 30.12 "Hg

Humidity: 40%

Dew Point: 48 °F

Location of RockfordLocation

Past Weather in Rockford — Graph

°F

Rockford Temperature Yesterday

Maximum temperature yesterday: 79 °F (at 12:54 PM)
Minimum temperature yesterday: 56 °F (at 5:54 AM)
Average temperature yesterday: 68 °F

High & Low Weather Summary for the Past Weeks

 TemperatureHumidityPressure
High92 °F (Jun 20, 2:54 PM)97% (Jun 29, 5:54 AM)30.24 "Hg (Jun 29, 5:54 AM)
Low51 °F (Jun 29, 4:54 AM)28% (Jun 20, 3:54 PM)29.77 "Hg (Jun 22, 6:54 PM)
Average74 °F64%30.04 "Hg
* Reported Jun 16 5:54 PM — Jul 1 5:54 PM, Rockford, Weather by CustomWeather, © 2016

Note: Actual official high and low records may vary slightly from our data, if they occured in-between our weather recording intervals... More about our weather records

Advertising

Rockford Weather History for the Previous 24 Hours

Scroll right to see more
 ConditionsComfort  
Time TempWeatherWind HumidityBarometerVisibility
5:54 PM
Fri, Jul 1
76 °FScattered clouds.8 mph37%30.11 "Hg10 mi
4:54 PM76 °FScattered clouds.7 mph39%30.11 "Hg10 mi
3:54 PM75 °FScattered clouds.6 mph42%30.12 "Hg10 mi
2:54 PM74 °FPartly sunny.12 mph43%30.13 "Hg10 mi
1:54 PM75 °FPartly sunny.12 mph43%30.13 "Hg10 mi
12:54 PM74 °FScattered clouds.14 mph45%30.13 "Hg10 mi
11:54 AM72 °FScattered clouds.13 mph52%30.12 "Hg10 mi
10:54 AM70 °FPartly sunny.13 mph57%30.11 "Hg10 mi
9:54 AM67 °FOvercast.14 mph63%30.11 "Hg10 mi
8:54 AM64 °FMostly cloudy.10 mph73%30.10 "Hg10 mi
7:54 AM61 °FMostly cloudy.13 mph87%30.10 "Hg10 mi
6:54 AM60 °FLow clouds.13 mph90%30.07 "Hg10 mi
5:54 AM61 °FOvercast.15 mph87%30.03 "Hg10 mi
4:54 AM62 °FPassing clouds.9 mph90%30.01 "Hg10 mi
3:54 AM62 °FMostly cloudy.9 mph93%29.98 "Hg10 mi
2:54 AM62 °FClear.8 mph90%29.96 "Hg10 mi
1:54 AM62 °FClear.6 mph90%29.94 "Hg10 mi
12:54 AM63 °FPassing clouds.8 mph90%29.94 "Hg10 mi
11:54 PM
Thu, Jun 30
64 °FPassing clouds.10 mph87%29.94 "Hg10 mi
10:54 PM64 °FPassing clouds.7 mph90%29.94 "Hg10 mi
9:54 PM64 °FPartly cloudy.3 mph90%29.94 "Hg10 mi
8:54 PM64 °FLight rain. Partly sunny.7 mph90%29.93 "Hg7 mi
7:54 PM73 °FMostly cloudy.5 mph64%29.93 "Hg10 mi
Weather by CustomWeather, © 2016

See weather overviewHow to use our weather pages